Overview Statistics Trail Chart Weather Telemetry Raw packets
 

This is the latest recevied weather packets stored in our database for station/object EA1IDU-12. If no packets are shown the sender has not sent any weather packets the latest 10 day(s).

<< 8 9 10 11 12 13 14 >>
Time Temp. Humidity Pressure Rain* Wind** Luminosity Snow
1788401415 12.22° C 59% 1033.7 hPa - - - -
1788400514 12.22° C 58% 1033.7 hPa - - - -
1788399614 12.22° C 58% 1033.7 hPa - - - -
1788398714 12.22° C 57% 1033.6 hPa - - - -
1788397814 13.33° C 56% 1033.6 hPa - - - -
1788396914 13.33° C 56% 1033.7 hPa - - - -
1788396013 12.78° C 56% 1033.8 hPa - - - -
1788395113 13.33° C 55% 1033.9 hPa - - - -
1788394213 13.89° C 55% 1033.9 hPa - - - -
1788393313 13.89° C 55% 1033.9 hPa - - - -
1788392413 13.89° C 54% 1033.9 hPa - - - -
1788391513 14.44° C 54% 1033.8 hPa - - - -
1788390612 15° C 54% 1033.9 hPa - - - -
1788389712 15° C 53% 1033.8 hPa - - - -
1788388812 15.56° C 53% 1033.8 hPa - - - -
1788387912 16.67° C 52% 1033.7 hPa - - - -
1788387012 16.11° C 51% 1033.7 hPa - - - -
1788386112 17.22° C 51% 1033.9 hPa - - - -
1788385211 17.78° C 50% 1033.7 hPa - - - -
1788384311 17.78° C 49% 1033.7 hPa - - - -
1788383411 18.33° C 47% 1033.6 hPa - - - -
1788382511 18.89° C 46% 1033.6 hPa - - - -
1788381611 19.44° C 45% 1033.4 hPa - - - -
1788380711 19.44° C 42% 1033.5 hPa - - - -
1788379810 20° C 41% 1033.3 hPa - - - -

* Rain since midnight (hover to see other rain measurements)
** Current wind speed in m/s (hover to see current wind gust speed)